Tracking 35331 objects as of 15-Sep-2026
HD Live streaming from Space Station
objects crossing your sky now

COSMOS 1813 DEB


COSMOS 1813 DEB is no longer on orbit


NORAD ID: 17517
Int'l Code: 1987-004BF
Launch date: January 15, 1987
Source: Commonwealth of Independent States (former USSR) (CIS)
Launch site: PLESETSK MISSILE AND SPACE COMPLEX (PKMTR)
Decay date: 1987-11-22

Note: This is SATELLITE DEBRIS
Your satellite tracking list
Your tracking list is empty




NASA's NSSDC Master Catalog

Two Line Element Set (TLE):
1 17517U 87004 BF 87320.22459512  .01080606 +22000-5 +60715-3 0  9992
2 17517 072.7944 257.2363 0016655 235.6636 124.2994 16.18763577045593
Source of the keplerian elements: AFSPC